This is the latest recevied weather packets stored in our database for station/object KI7JYE. If no packets are shown the sender has not sent any weather packets the latest 10 day(s).
| Time | Temp. | Humidity | Pressure | Rain* | Wind** | Luminosity | Snow |
|---|---|---|---|---|---|---|---|
| 1777614910 | 18.89° C | 52% | 1013.8 hPa | 0 mm | - | 0 W/m² | - |
| 1777614607 | 19.44° C | 52% | 1013.6 hPa | 0 mm | - | 0 W/m² | - |
| 1777614302 | 19.44° C | 52% | 1013.7 hPa | 0 mm | - | 0 W/m² | - |
| 1777613997 | 19.44° C | 52% | 1013.5 hPa | 0 mm | - | 0 W/m² | - |
| 1777613693 | 19.44° C | 51% | 1013.6 hPa | 0 mm | - | 0 W/m² | - |
| 1777613391 | 20° C | 51% | 1013.6 hPa | 0 mm | - | 0 W/m² | - |
| 1777613086 | 19.44° C | 53% | 1013.5 hPa | 0 mm | - | 0 W/m² | - |
| 1777612783 | 19.44° C | 53% | 1013.4 hPa | 0 mm | - | 0 W/m² | - |
| 1777612479 | 19.44° C | 54% | 1013.6 hPa | 0 mm | - | 0 W/m² | - |
| 1777612175 | 20° C | 53% | 1013.6 hPa | 0 mm | - | 0 W/m² | - |
| 1777611870 | 20° C | 53% | 1013.3 hPa | 0 mm | - | 0 W/m² | - |
| 1777611566 | 20° C | 54% | 1013.4 hPa | 0 mm | - | 0 W/m² | - |
| 1777611263 | 19.44° C | 54% | 1013.4 hPa | 0 mm | - | 0 W/m² | - |
| 1777610960 | 20° C | 56% | 1013.5 hPa | 0 mm | - | 0 W/m² | - |
| 1777610655 | 20° C | 54% | 1013.6 hPa | 0 mm | - | 0 W/m² | - |
| 1777610349 | 20.56° C | 54% | 1013.4 hPa | 0 mm | - | 0 W/m² | - |
| 1777610045 | 20.56° C | 53% | 1013.3 hPa | 0 mm | - | 0 W/m² | - |
| 1777609743 | 20.56° C | 53% | 1013.3 hPa | 0 mm | - | 0 W/m² | - |
| 1777609439 | 20.56° C | 52% | 1013.1 hPa | 0 mm | - | 0 W/m² | - |
| 1777609136 | 21.11° C | 52% | 1013.1 hPa | 0 mm | - | 0 W/m² | - |
| 1777608833 | 21.11° C | 52% | 1013.1 hPa | 0 mm | - | 0 W/m² | - |
| 1777608530 | 20.56° C | 53% | 1013 hPa | 0 mm | - | 0 W/m² | - |
| 1777608228 | 20.56° C | 53% | 1012.8 hPa | 0 mm | - | 0 W/m² | - |
| 1777607925 | 20° C | 52% | 1012.9 hPa | 0 mm | - | 0 W/m² | - |
| 1777607620 | 18.89° C | 54% | 1012.8 hPa | 0 mm | - | 0 W/m² | - |
* Rain latest hour (hover to see other rain measurements)
** Current wind speed in m/s (hover to see current wind gust speed)